Location: Newark
(33.6333°S, 78.8500°W)
Time: 03:36:34
(UTC+00:00)

ISS - Pass Details

Date: 21 August 2019
Orbit: 411 x 421 km, 51.6° (Epoch: 14 October)

Event Time Altitude Azimuth Distance (km) Brightness Sun altitude
Rises 23:43:14 0° 311° (NW) 2,354 1.1 -11.7°
Reaches altitude 10° 23:45:20 10° 309° (NW) 1,496 0.0 -12.1°
Maximum altitude 23:48:41 74° 223° (SW) 441 -3.6 -12.8°
Enters shadow 23:51:15 16° 139° (SE) 1,181 -1.9 -13.3°
